Current weather by "City, St" or "zip code"  
 

Current Conditions: DECATUR

Clear


79.0 F

Last Updated on Jun 17 2024, 11:54 PM CDT
Humidity: 67%
Wind Speed: S 9.2 mph
Barometer 29.99 in
Dewpoint: 66.9 F
Visibility: 10.00 mi
Precip: --
Heat Index: 79.7 F
Wind Chill: NA
Current conditions at:

DECATUR (KDEC)

Lat: 39.83 Lon: 88.87

active severe weather and emergency alerts image image weather storm and storm spotter reports image weather observation monitoring service image
Active
Alerts
Storm Reports Obs
Monitoring

Sign-up For Email & Text Message Weather Alert Notification Services



Advertise Here

Observation History for DECATUR


Time Wind
(mph)
Vis
(mi)
Weather Precip (in) Temperature (F) Relative
Humidity
Wind
Chill
(F)
Heat
Index
(F)
Pressure
Air Dwpt altimeter
(in)
sea level
(mb)
Rmks
11:54 PM CDT S 9.2 10.00 Clear -- 79.0 66.9 67% NA 79.7 29.99 1015.6
10:54 PM CDT S 16.1 10.00 Clear -- 80.1 66.9 64% NA 82.4 29.98 1015.2
09:54 PM CDT S 15.0 10.00 Clear -- 82.0 66.9 60% NA 84.6 29.98 1015.2
08:54 PM CDT 10.00 Clear -- 82.9 70.0 65% NA 87.1 29.95 1014.2
07:54 PM CDT 13.9 10.00 Clear -- 84.0 70.0 63% NA 88.3 29.94 1013.9
06:54 PM CDT 10.00 Clear -- 87.1 71.1 59% NA 92.8 29.92 1013.2
05:54 PM CDT S 18.3 10.00 Mostly Clear -- 89.1 70.0 53% NA 94.3 29.91 1012.9
04:54 PM CDT 10.00 Clear -- 93.0 69.1 46% NA 98.4 29.91 1012.9
03:54 PM CDT 10.00 Clear -- 95.0 68.0 42% NA 99.9 29.92 1013.2
02:54 PM CDT S 16.1 10.00 Clear -- 95.0 70.0 44% NA 101.5 29.95 1014.2
01:54 PM CDT S 12.8 10.00 Mostly Clear -- 93.9 70.0 46% NA 100.2 29.95 1014.2
10:54 AM CDT S 9.2 10.00 Mostly Clear Trace 89.1 73.0 59% NA 97.2 30.01 1016.3
07:54 AM CDT 11.4 10.00 Mostly Clear -- 82.9 72.0 70% NA 88.2 30.00 1015.9
06:54 AM CDT S 9.2 10.00 NULL -- 79.0 71.1 77% NA 81.9 29.98 1015.2
05:54 AM CDT S 8.1 10.00 Clear -- 75.9 69.1 79% NA 77.0 29.95 1014.2
04:54 AM CDT S 5.8 10.00 Clear -- 75.0 69.1 82% NA 76.1 29.95 1014.2
03:54 AM CDT S 4.7 10.00 Clear -- 75.9 68.0 76% NA 76.8 29.94 1013.9
02:54 AM CDT 8.1 10.00 Clear -- 77.0 69.1 77% NA 78.1 29.94 1013.9
01:54 AM CDT 6.9 10.00 Clear -- 78.1 68.0 71% NA 79.0 29.94 1013.9
12:54 AM CDT S 9.2 10.00 Clear -- 80.1 68.0 67% NA 82.6 29.95 1014.2
11:54 PM CDT 10.3 10.00 Clear -- 82.9 69.1 63% NA 86.5 29.95 1014.2
10:54 PM CDT S 12.8 10.00 Clear -- 84.0 69.1 61% NA 87.8 29.94 1013.9
09:54 PM CDT S 13.9 10.00 Clear -- 87.1 69.1 55% NA 91.4 29.94 1013.6
08:54 PM CDT 10.00 Clear -- 87.1 66.9 51% NA 90.0 29.90 1012.5

Regional Weather Observation


DECATUR (KDEC)

Clear
79.0 F

BLOOMINGTON/NORM (KBMI)

Clear and Windy
79.0 F

SPRINGFIELD (KSPI)

Clear
78.1 F

TAYLORVILLE (KTAZ)

Clear
75.6 F

CHAMPAIGN/URBANA (KCMI)

Clear
81.0 F

RANTOUL (KTIP)

Clear
79.2 F

Advertise Here


Advertise Here